DELTA 1 DEB, 10721

Orbit data source: Space-Track

DELTA 1 DEB, 10721 is space debris in SSO originally from a launch on Thu, 29 Jul 1976 UTC launched from the Air Force Western Test Range (AFWTR). Debris objects in space refer to the collection of defunct objects orbiting the Earth. Examples of debris include non-operational satellites, rocket bodies, and fragments generated from explosions, collisions, or faulty payload assembly.

Loading next visibility...
Identifier
10721, 1976-077AS
Orbit
SSO
Country
Flag of USUS
Related business
Manufacturer
Unknown
Mission
Spacecraft
Bus & Motor
Unknown
Mass
Unknown
Launch date (UTC)
1976-07-29 (50 years ago)
Launch vehicle
Unknown
Launch site
Air Force Western Test Range (AFWTR)
Object type
Payload
Rocket body
Debris
Shape & HBR
Unknown shape, 0.1 m
Radar Cross Section
Medium (>0.1 m² and <1 m²)

Expand to show TLE details & history
Last TLE update: 22 hours ago

TLE from 22 hours ago
0 DELTA 1 DEB
1 10721U 76077AS  26255.35229969  .00000914  00000-0  51428-2 0  9999
2 10721 101.7830 204.4961 0040207 196.9502 317.9731 12.65248873299337
Epoch: 2026-09-12T08:27Z
TLE epoch observation values (Epoch: 2026-09-12T08:27:18.693Z)
Latitude
24.84303°
Longitude
-88.17978°
Altitude
1,380.894 km
Speed
7.182 km/s
True Right ascension
02h 00m 02s
True Declination
24° 43' 22"
Sunlit
Object was in full shadow at epoch
Visualization orbit readout
Latitude
Unknown
Longitude
Unknown
Altitude
Unknown
Speed
Unknown
Apparent Right ascension
Unknown
Apparent Declination
Unknown
Sunlit
N/A
Visualization observer readout
Local Sidereal Time
22:29:26
Azimuth
Unknown
Elevation
Unknown
Doppler factor
Unknown
Orbital elements
Apogee altitude
1,430.152 km
Perigee altitude
1,367.614 km
Semi-major axis
7,777.02 km
Eccentricity
0.00402
Inclination
101.783°
RAAN
204.4961°
Arg. of periapsis
196.9502°
True anomaly
317.66349°
Mean anomaly
317.9731°
Eccentric anomaly
317.81841°
Mean motion
3.16463 °/min
Orbital period
113.76 mins
BSTAR
0.0051428
Loading maneuver chart data...
Computing Atmospheric mass density...
Loading historical data...
Loading historical data...
Loading historical data...
Loading historical data...
Loading historical data...
Loading historical data...
Loading historical data...

Documentation

Showing up to 5 results
|